Location: Ab? ar R?sh Ba?r?
(24.1861°N, 32.8847°E)
Time: 09:56:29
(UTC+00:00)

Cosmos 2263 Rocket - Pass Details

Date: 24 October 2021
Orbit: 825 x 847 km, 71.0° (Epoch: 03 December)

Event Time Altitude Azimuth Distance (km) Brightness Sun altitude
Rises 16:56:53 0° 324° (NW) 3,358 5.8 -23.9°
Reaches altitude 10° 16:59:42 10° 311° (NW) 2,424 5.2 -24.6°
Maximum altitude 17:04:08 25° 258° (WSW) 1,613 4.3 -25.6°
Drops below altitude 10° 17:08:34 10° 204° (SSW) 2,424 4.9 -26.6°
Sets 17:11:24 0° 192° (SSW) 3,358 5.5 -27.3°
